Kezdőlap
METAR-TAF:

METAR-TAF

Repülőterek :

Jackson Municipal Airport

Jackson, Minnesota, Amerikai Egyesült Államok

földrajzi szélesség: 43-39N, földrajzi hosszúság: 094-59W, magasság: 441 m

Jelenlegi meteorológiai megfigyelések

A jelentés 26 perccel ezelõtt készült, 11:15 UTC
Szélcsend
Hőmérséklet 10°C
Páratartalom 82%
Légköri nyomás 1016 hPa
Látótávolság: 16.1 km
Szórványos felhőzet 7000 lábon
Szórványos felhőzet 8500 lábon

METAR: KMJQ 171115Z AUTO 00000KT 10SM SCT070 SCT085 10/07 A3001 RMK AO2

Idő: 06:41 (11:41 UTC)


TAF: hiányzik

Meteorológiai megfigyelések és előrejelzések több, mint 4000 repülőtéren (METAR és TAF jelentéseket).

A térképen piros és sárga pontok jelzik az elérhető meteorológiai állomásokat.

Mozgassa az egeret a pont fölött, hogy megjelenjen az állomás neve.

Azután kattintson az időjárási megfigyelések és előrejelzések megtekintéséhez.

A térkép megváltoztatása: kattintson a fekete keresztel jelölt zöld gombra ráközelítéshez, a vonallal jelölt zöld gombra távolításhoz, vagy a zöld nyilakra a szomszédos térképek eléréséhez.


METAR-TAF: